UnixTime_GMT,TimeWarmup_min,TimeZero_min,TimeMeas_min
1520010000000,,,
1520078400000,8.7,0.3,12.9
1520143200000,8.5,0.3,13.1
1520208000000,8.8,0.3,12.9
1520272800000,8.7,0.3,13.0
1520337600000,8.6,0.3,13.0
1520402400000,8.6,0.3,13.1
1520467200000,8.3,0.3,13.3
1520532000000,8.5,0.3,13.1
1520596800000,12.8,0.4,13.1
1520661600000,8.5,0.3,13.2
1520726400000,8.5,0.3,13.1
1520791200000,8.4,0.3,13.2
1520856000000,8.4,0.3,13.2
1520920800000,8.2,0.3,13.4
1520985600000,8.4,0.3,13.2
1521050400000,8.5,0.3,13.1
1521115200000,8.5,0.3,13.2
1521180000000,8.6,0.3,13.1
1521244800000,8.4,0.3,13.2
1521309600000,8.7,0.3,12.9
1521374400000,8.7,0.3,13.0
1521439200000,8.5,0.3,13.1
1521504000000,8.5,0.3,13.1
1521568800000,8.5,0.3,13.1
1521633600000,8.4,0.3,13.2
1521698400000,8.4,0.3,13.2
1521763200000,8.3,0.3,13.3
1521828000000,8.4,0.3,13.2
1521892800000,8.6,0.3,13.0
1521957600000,8.6,0.3,13.0
1522022400000,8.6,0.3,13.0
1522087200000,8.8,0.3,12.8
1522152000000,9.1,0.3,12.6
1522216800000,8.6,0.3,13.0
1522281600000,8.3,0.3,13.3
1522346400000,8.8,0.3,12.8
1522411200000,8.6,0.3,13.1
1522476000000,8.5,0.3,13.2
1522540800000,8.3,0.3,13.3
1522605600000,8.9,0.3,12.8
1522670400000,8.7,0.3,12.9
1522735200000,8.6,0.3,13.1
1522800000000,8.4,0.3,13.2
1522864800000,8.5,0.3,13.1
1522929600000,8.8,0.3,12.8
1522994400000,8.4,0.3,13.3
1523059200000,8.3,0.3,13.4
1523124000000,8.3,0.3,13.3
1523188800000,8.1,0.3,13.5
1523253600000,8.1,0.3,13.5
1523318400000,7.7,0.3,13.9
1523448000000,7.8,0.3,12.8
1523512800000,7.8,0.3,13.8
1523577600000,8.0,0.3,13.6
1523642400000,8.1,0.3,13.5
1523707200000,8.2,0.3,13.4
1523772000000,8.0,0.3,13.7
1523836800000,8.2,0.3,13.4
1523901600000,8.5,0.3,13.1
1523966400000,8.8,0.3,12.8
1524031200000,8.6,0.3,13.1
1524096000000,8.3,0.3,13.3
1524160800000,10.7,0.3,13.0
1524225600000,8.7,0.3,13.0
1524290400000,10.7,0.3,13.0
1524355200000,8.4,0.3,13.2
1524420000000,8.6,0.3,13.1
1524484800000,9.0,0.3,12.7
1524549600000,8.5,0.3,13.2
1524614400000,8.4,0.3,13.2
1524679200000,8.2,0.3,13.4
1524744000000,8.6,0.3,13.1
1524808800000,8.3,0.3,13.3
1524873600000,8.2,0.3,13.5
1525003200000,8.3,0.3,13.3
1525068000000,8.2,0.3,13.4
1525132800000,,,3.9
1525197600000,8.6,0.4,13.1
1525262400000,8.5,0.3,13.1
1525327200000,8.3,0.3,13.3
1525392000000,8.2,0.3,13.4
1525456800000,8.4,0.3,13.2
1525521600000,8.2,0.3,13.4
1525586400000,8.1,1.3,14.6
1525651200000,7.9,0.3,13.8
1525716000000,7.8,0.3,13.8
1525780800000,7.8,0.3,13.8
1525845600000,7.9,0.3,13.8
1525910400000,7.6,0.3,14.1
1525975200000,7.7,0.3,13.9
1526040000000,7.8,0.3,13.8
1526104800000,8.0,0.3,13.7
1526169600000,7.9,0.3,13.8
1526234400000,7.9,0.3,13.7
1526299200000,8.0,0.3,13.7
1526364000000,8.0,0.3,13.6
1526428800000,7.9,0.3,13.7
1526558400000,8.1,0.3,13.6
1526623200000,8.1,0.3,13.5
1526688000000,7.9,0.3,13.8
1526752800000,8.0,0.3,13.6
1526817600000,8.1,0.3,13.5
1526882400000,8.2,0.3,13.4
1526947200000,8.1,0.3,13.5
1527012000000,8.2,0.3,13.4
1527076800000,8.3,0.3,13.3
1527141600000,8.1,0.3,14.1
1527206400000,8.0,0.3,13.6
1527271200000,8.1,0.3,13.5
1527400800000,8.3,0.3,13.3
1527465600000,7.6,0.3,14.0
1527530400000,7.9,0.3,13.7
1527595200000,7.7,0.3,13.9
1527660000000,7.9,0.3,13.8
1527724800000,7.6,0.3,14.0
1527789600000,7.7,0.3,13.9
1527919200000,7.5,0.3,14.1
1527984000000,7.7,0.3,14.0
1528048800000,7.6,0.3,14.1
1528113600000,7.6,0.3,14.0
1528178400000,7.5,0.3,14.2
1528243200000,7.5,0.3,14.1
1528308000000,7.7,0.3,14.0
1528372800000,7.7,0.3,13.9
1528437600000,7.3,0.7,14.0
1528502400000,7.1,0.7,14.2
1528632000000,7.3,0.6,14.0
1528696800000,7.1,0.6,14.2
1528761600000,6.8,0.6,14.5
1528826400000,7.0,0.6,14.3
1528891200000,7.2,0.6,14.1
1528956000000,7.0,0.7,14.3
1529020800000,6.8,0.7,14.5
1529085600000,6.8,0.7,14.5
1529150400000,6.7,0.7,14.7
1529215200000,6.9,0.6,14.4
1529280000000,7.2,0.6,14.1
1529344800000,7.2,0.6,14.1
1529409600000,7.3,0.6,14.0
1529474400000,7.2,0.7,14.1
1529539200000,7.1,0.7,14.2
1529604000000,11.1,0.6,14.1
1529668800000,7.3,0.7,14.0
1529733600000,7.3,0.6,14.0
1529798400000,7.4,0.6,13.9
1529863200000,7.5,0.7,13.9
1529928000000,7.2,0.7,14.1
1529992800000,7.3,0.6,14.0
1530057600000,7.0,0.7,14.4
1530122400000,6.9,0.6,14.4
1530187200000,6.8,0.6,14.5
1530252000000,6.8,0.7,14.6
1530316800000,7.3,0.6,14.0
1530381600000,7.0,0.6,14.3
1530446400000,6.9,0.6,14.4
1530511200000,6.7,0.6,14.6
1530576000000,6.6,0.6,14.7
1530640800000,6.7,0.6,14.6
1530705600000,6.8,0.6,14.5
1530770400000,6.7,0.6,14.7
1530835200000,6.5,0.6,14.8
1530900000000,6.6,0.6,14.7
1530964800000,6.5,0.6,14.8
1531029600000,6.3,0.7,15.0
1531094400000,6.2,0.7,15.1
1531159200000,6.2,0.6,15.1
1531224000000,6.3,0.7,15.0
1531288800000,6.5,0.7,14.8
1531353600000,6.2,0.6,15.1
1531418400000,6.5,0.6,14.8
1531483200000,6.3,0.6,15.0
1531548000000,6.3,0.6,15.0
1531612800000,6.3,0.6,15.1
1531742400000,6.7,0.6,14.6
1531807200000,6.4,0.7,14.9
1531872000000,6.4,0.6,14.9
1531936800000,6.6,0.6,14.7
1532001600000,6.6,0.6,14.7
1532066400000,6.4,0.7,14.9
1532131200000,6.2,0.6,16.1
1532196000000,6.3,0.7,15.0
1532260800000,6.4,0.7,14.9
1532325600000,6.3,0.6,15.0
1532390400000,5.8,0.6,15.5
1532455200000,5.7,0.7,17.8
1532584800000,5.8,0.6,15.5
1532649600000,5.8,0.6,15.5
1532714400000,5.8,0.7,15.5
1532844000000,5.9,0.6,15.4
1532908800000,5.9,0.7,15.4
1532973600000,5.7,0.6,15.6
1533038400000,5.7,0.7,15.6
1533103200000,5.7,0.6,15.7
1533168000000,5.5,0.7,15.8
1533232800000,5.6,0.7,15.7
1533297600000,5.5,0.7,15.9
1533362400000,5.3,0.7,16.0
1533427200000,5.5,0.7,20.1
1533492000000,5.5,0.6,15.8
1533556800000,5.4,0.6,12.4
1533621600000,5.5,0.6,15.8
1533686400000,5.5,0.7,15.9
1533751200000,5.7,0.7,15.7
1533816000000,5.6,0.7,15.7
1533880800000,5.5,0.6,15.8
1533945600000,5.5,0.6,15.8
1534010400000,5.6,0.7,15.7
1534075200000,5.8,0.7,15.5
1534140000000,6.0,0.7,15.3
1534204800000,6.0,0.6,15.3
1534269600000,6.2,0.6,15.1
1534334400000,6.2,0.7,15.2
1534399200000,5.8,0.6,15.5
1534464000000,5.8,0.6,15.5
1534528800000,5.9,0.7,15.4
1534658400000,5.7,0.6,15.6
1534723200000,5.6,0.7,15.7
1534788000000,6.0,0.6,15.3
1534917600000,5.7,0.7,15.6
1534982400000,5.6,1.3,16.4
1535047200000,5.8,0.6,15.5
1535176800000,5.6,0.7,15.7
1535241600000,5.7,0.6,15.6
1535306400000,5.7,0.6,15.6
1535371200000,5.8,0.6,15.5
1535436000000,5.9,0.6,15.4
1535500800000,5.9,0.6,15.4
1535565600000,6.0,0.6,15.4
1535630400000,6.0,0.7,15.3
1535695200000,5.9,0.6,15.4
1535760000000,5.8,0.7,15.6
1535824800000,6.1,0.7,15.2
1535889600000,6.0,0.7,15.3
1535954400000,6.1,0.6,15.2
1536019200000,6.0,0.6,15.2
1536084000000,6.0,0.6,18.4
1536148800000,6.0,0.6,15.3
1536213600000,6.0,0.7,15.3
1536278400000,6.0,0.7,15.3
1536343200000,6.1,0.6,15.2
1536408000000,6.2,0.7,15.1
1536472800000,6.0,0.6,15.3
1536537600000,6.1,0.6,15.2
1536602400000,6.1,0.6,15.2
1536667200000,6.1,0.6,15.2
1536732000000,6.0,0.7,15.3
1536796800000,6.0,0.6,15.3
1536861600000,6.2,0.6,15.1
1536926400000,6.3,0.6,15.0
1536991200000,6.1,0.7,15.2
1537056000000,6.0,0.6,15.3
1537120800000,6.2,0.7,15.1
1537185600000,6.4,0.7,14.9
1537250400000,6.4,0.7,14.9
1537315200000,6.3,0.6,15.0
1537380000000,6.4,0.7,14.9
1537509600000,6.5,0.6,14.8
1537574400000,6.4,0.6,14.9
1537639200000,6.7,0.6,14.6
1537704000000,6.7,0.6,14.7
1537768800000,6.4,0.7,14.9
1537833600000,6.5,0.6,14.8
1537898400000,6.7,0.6,14.6
1537963200000,6.8,0.6,14.5
1538028000000,6.8,0.7,14.5
1538092800000,6.8,0.6,14.6
1538157600000,6.7,0.6,14.6
1538222400000,7.0,0.7,14.3
1538287200000,6.9,0.6,14.4
1538352000000,6.7,0.7,14.6
1538416800000,6.8,0.7,14.6
1538546400000,7.0,0.7,14.3
1538611200000,6.7,0.7,14.6
1538676000000,6.9,0.6,14.4
1538740800000,7.5,0.7,13.8
1538805600000,7.4,0.6,13.9
1538870400000,7.5,0.7,13.9
1538935200000,7.5,0.6,13.8
1539000000000,7.1,0.6,14.2
1539064800000,7.1,0.7,14.2
1539129600000,6.8,0.7,14.5
1539194400000,7.4,0.7,14.0
1539259200000,7.4,0.7,13.9
1539324000000,7.2,0.6,14.1
1539388800000,7.4,0.6,13.9
1539453600000,7.5,0.7,13.9
1539518400000,7.3,0.6,14.0
1539583200000,7.5,0.6,13.8
1539648000000,7.2,0.6,14.1
1539712800000,7.7,0.6,13.7
1539777600000,7.4,0.6,13.9
1539842400000,7.2,0.7,14.1
1539907200000,7.0,0.7,14.3
1539972000000,7.4,0.7,13.9
1540036800000,7.1,0.6,14.2
1540101600000,7.0,0.6,14.3
1540166400000,6.9,0.6,14.4
1540231200000,7.1,0.7,14.2
1540296000000,7.0,0.7,14.3
1540360800000,7.0,0.6,14.3
1540425600000,6.9,0.7,14.4
1540490400000,7.1,0.6,14.2
1540555200000,7.0,0.7,14.3
1540620000000,7.3,0.6,14.0
1540684800000,7.0,0.6,14.3
1540749600000,7.0,0.7,14.3
1540814400000,7.0,0.7,14.3
1540879200000,7.0,0.6,14.3
1540944000000,6.9,0.6,14.4
1541008800000,7.0,0.6,14.3
1541073600000,7.4,0.7,13.9
1541138400000,7.1,0.7,14.2
1541203200000,7.0,0.6,14.3
1541268000000,7.3,0.6,14.0
1541332800000,7.4,0.7,13.9
1541397600000,7.0,0.6,14.3
1541462400000,7.1,0.7,14.2
1541527200000,7.3,0.7,14.1
1541592000000,7.1,0.6,14.2
1541656800000,7.3,0.6,14.0
1541721600000,7.2,0.6,14.2
1541786400000,7.5,0.7,13.9
1541851200000,7.7,0.6,13.7
1541916000000,7.5,0.7,13.8
1541980800000,7.4,0.7,14.0
1542045600000,7.7,0.6,13.6
1542110400000,7.5,0.6,13.8
1542175200000,7.5,0.7,13.9
1542240000000,7.2,0.7,14.1
1542304800000,7.7,0.6,13.6
1542369600000,7.5,0.7,13.9
1542434400000,7.4,0.7,14.0
1542499200000,7.6,0.7,13.7
1542564000000,7.5,0.6,13.8
1542628800000,7.6,0.7,13.8
1542693600000,7.5,0.7,13.9
1542758400000,7.3,0.6,14.0
1542823200000,7.4,0.6,13.9
1542888000000,7.5,0.6,13.8
1542952800000,7.5,0.7,13.8
1543017600000,7.6,0.6,13.7
1543082400000,7.8,0.6,13.5
1543147200000,7.6,0.7,13.8
1543212000000,7.5,0.6,13.8
1543276800000,7.4,0.7,13.9
1543341600000,7.8,0.7,13.6
1543406400000,7.6,0.7,13.7
1543471200000,7.5,0.7,13.9
1543600800000,7.7,0.6,13.7
1543665600000,7.7,0.6,13.6
1543730400000,7.7,0.6,13.7
1543795200000,8.0,0.7,13.3
1543860000000,7.8,0.7,13.6
1543924800000,7.9,0.6,13.4
1543989600000,7.8,0.6,13.5
1544054400000,7.9,0.6,13.4
1544119200000,8.0,0.6,13.4
1544184000000,8.0,0.7,13.3
1544248800000,8.0,0.6,13.3
1544313600000,7.9,0.6,13.4
1544378400000,8.2,0.7,13.2
1544443200000,7.8,0.6,13.5
1544508000000,8.0,0.6,13.4
1544572800000,7.8,0.6,13.5
1544637600000,8.0,0.7,13.3
1544702400000,7.8,0.7,13.6
1544767200000,8.0,0.6,18.8
1544832000000,7.8,0.7,13.6
1544896800000,7.9,0.6,13.4
1544961600000,7.6,0.7,13.7
1545026400000,7.6,0.7,13.7
1545091200000,7.8,0.6,13.5
1545156000000,7.9,0.6,13.4
1545220800000,8.0,0.7,13.3
1545285600000,7.8,0.6,13.5
1545350400000,7.7,0.7,13.6
1545415200000,7.8,0.6,13.5
1545480000000,7.8,0.7,13.4
1545544800000,8.0,0.6,13.3
1545609600000,7.8,0.6,13.5
1545674400000,7.9,0.7,13.4
1545739200000,8.0,0.7,13.3
1545804000000,8.0,0.7,13.3
1545868800000,8.1,0.6,13.3
1545933600000,8.1,0.7,13.2
1545998400000,8.3,0.6,13.0
1546063200000,8.3,0.6,12.9
1546128000000,8.1,0.6,13.2
1546192800000,8.2,0.7,13.1
1546257600000,8.5,0.7,12.8
1546322400000,8.4,0.7,12.9
1546387200000,8.4,0.7,12.9
1546452000000,8.7,0.7,12.7
1546516800000,8.3,0.6,13.1
1546581600000,8.3,0.6,13.0
1546646400000,8.3,0.7,13.0
1546711200000,8.2,0.6,13.1
1546776000000,8.2,0.6,13.1
1546840800000,8.2,0.6,13.1
1546905600000,8.1,0.6,13.2
1546970400000,8.1,0.6,13.2
1547035200000,8.2,0.6,13.1
1547100000000,8.2,0.7,13.1
1547164800000,8.1,0.6,13.2
1547229600000,8.2,0.7,13.1
1547294400000,8.4,0.7,12.9
1547359200000,8.4,0.6,12.8
1547424000000,8.4,0.7,12.9
1547488800000,8.3,0.6,13.1
1547553600000,8.2,0.6,13.1
1547618400000,8.4,0.6,12.9
1547683200000,8.2,0.6,13.1
1547748000000,8.3,0.6,13.1
1547812800000,8.3,0.6,13.0
1547877600000,8.3,0.6,13.0
1547942400000,8.1,0.6,13.2
1548007200000,8.2,0.6,13.1
1548072000000,8.4,0.7,12.8
1548136800000,8.3,0.6,12.9
1548201600000,8.3,0.6,13.0
1548266400000,8.5,0.7,12.8
1548331200000,8.3,0.6,13.0
1548396000000,8.4,0.7,12.9
1548460800000,8.2,0.7,13.1
1548525600000,8.5,0.7,12.8
1548590400000,8.6,0.7,12.8
1548655200000,8.4,0.6,12.9
1548720000000,8.5,0.6,12.8
1548784800000,8.5,0.6,12.8
1548849600000,8.4,0.6,12.9
1548914400000,8.3,0.6,13.0
1548979200000,8.3,0.6,13.0
1549044000000,8.3,0.6,13.0
1549108800000,8.3,0.6,13.0
1549173600000,8.3,0.7,13.0
1549238400000,8.4,0.6,12.8
1549303200000,8.4,0.6,12.9
1549368000000,8.5,0.7,12.8
1549432800000,8.5,0.7,0.2
1549497600000,8.4,1.2,13.5
1549562400000,8.5,0.6,12.8
1549627200000,8.5,0.7,12.8
1549692000000,8.4,0.6,12.9
1549756800000,8.4,0.7,12.9
1549821600000,8.4,0.7,12.9
1549886400000,8.4,0.7,12.9
1549951200000,8.4,0.6,12.8
1550016000000,8.3,0.7,13.0
1550080800000,8.5,0.7,12.8
1550145600000,8.8,0.6,12.5
1550210400000,8.6,0.6,12.7
1550275200000,8.5,0.7,12.8
1550340000000,8.6,2.3,14.3
1550404800000,8.7,0.7,12.6
1550469600000,8.6,0.6,12.7
1550534400000,8.4,0.7,12.9
1550599200000,8.7,0.6,12.6
1550664000000,8.8,0.6,12.6
1550728800000,8.7,0.6,12.6
1550793600000,8.7,0.6,12.6
1550858400000,8.8,0.6,12.5
1550923200000,8.8,0.6,12.5
1550988000000,8.9,0.7,12.4
1551052800000,8.8,0.7,12.5
1551117600000,9.0,0.6,12.3
1551182400000,9.0,0.6,12.3
1551247200000,8.8,0.7,12.5
1551312000000,8.7,0.7,12.6
1551376800000,8.8,0.6,12.5
1551441600000,8.5,0.6,12.8
1551506400000,8.8,0.7,12.5
1551571200000,8.7,0.6,12.7
1551636000000,8.7,0.6,12.6
1551700800000,8.7,0.6,12.6
1551765600000,8.7,0.6,12.6
1551830400000,8.5,0.6,12.8
1551895200000,8.7,0.7,12.6
1551960000000,8.7,0.7,12.7
1552024800000,8.8,0.7,12.5
1552089600000,8.7,0.6,12.6
1552154400000,8.7,0.6,12.6
1552219200000,8.8,0.6,12.5
1552284000000,8.8,0.6,12.6
1552348800000,8.8,0.6,12.5
1552413600000,9.0,0.6,12.3
1552478400000,8.8,0.7,12.5
1552543200000,8.7,0.7,12.6
1552608000000,8.5,0.7,12.8
1552672800000,8.7,0.6,12.6